TimeCDT,TemperatureF,Dew PointF,Humidity,Sea Level PressureIn,VisibilityMPH,Wind Direction,Wind SpeedMPH,Gust SpeedMPH,PrecipitationIn,Events,Conditions,WindDirDegrees,DateUTC
12:52 AM,53.1,46.0,77,30.24,10.0,South,8.1,-,N/A,,Partly Cloudy,180,2013-04-27 05:52:00
1:52 AM,51.1,45.0,80,30.25,10.0,Calm,Calm,-,N/A,,Mostly Cloudy,0,2013-04-27 06:52:00
2:52 AM,46.0,43.0,89,30.24,10.0,Calm,Calm,-,N/A,,Clear,0,2013-04-27 07:52:00
3:52 AM,44.1,41.0,89,30.24,10.0,Calm,Calm,-,N/A,,Clear,0,2013-04-27 08:52:00
4:52 AM,43.0,41.0,93,30.23,10.0,Calm,Calm,-,N/A,,Clear,0,2013-04-27 09:52:00
5:52 AM,41.0,39.9,96,30.22,10.0,Calm,Calm,-,N/A,,Clear,0,2013-04-27 10:52:00
6:52 AM,43.0,41.0,93,30.22,10.0,Calm,Calm,-,N/A,,Clear,0,2013-04-27 11:52:00
7:52 AM,46.9,44.1,90,30.22,10.0,ESE,3.5,-,N/A,,Clear,110,2013-04-27 12:52:00
8:52 AM,51.1,46.0,83,30.21,10.0,SSE,3.5,-,N/A,,Clear,150,2013-04-27 13:52:00
9:52 AM,55.0,46.9,74,30.19,10.0,SE,3.5,-,N/A,,Clear,130,2013-04-27 14:52:00
10:52 AM,57.9,46.9,67,30.19,10.0,SSE,11.5,16.1,N/A,,Mostly Cloudy,150,2013-04-27 15:52:00
10:59 AM,57.2,46.4,67,30.18,10.0,SSE,12.7,-,N/A,,Mostly Cloudy,160,2013-04-27 15:59:00
11:52 AM,62.1,46.9,58,30.18,10.0,SSE,11.5,16.1,N/A,,Partly Cloudy,160,2013-04-27 16:52:00
12:52 PM,62.1,46.0,56,30.16,10.0,SSE,12.7,-,N/A,,Scattered Clouds,150,2013-04-27 17:52:00
1:52 PM,61.0,46.0,58,30.14,10.0,South,12.7,20.7,N/A,,Overcast,170,2013-04-27 18:52:00
2:52 PM,62.1,46.0,56,30.12,10.0,Variable,4.6,-,N/A,,Mostly Cloudy,0,2013-04-27 19:52:00
3:52 PM,61.0,45.0,56,30.10,10.0,South,4.6,-,N/A,,Overcast,180,2013-04-27 20:52:00
4:52 PM,62.1,45.0,53,30.08,10.0,SSE,6.9,-,N/A,,Overcast,150,2013-04-27 21:52:00
5:52 PM,62.1,45.0,53,30.06,10.0,SE,6.9,-,N/A,,Overcast,130,2013-04-27 22:52:00
6:52 PM,61.0,45.0,56,30.05,10.0,SE,6.9,-,N/A,,Overcast,130,2013-04-27 23:52:00
7:52 PM,59.0,46.0,62,30.04,10.0,SSE,4.6,-,N/A,,Overcast,150,2013-04-28 00:52:00
8:52 PM,59.0,46.0,62,30.03,10.0,Calm,Calm,-,N/A,,Overcast,0,2013-04-28 01:52:00
9:52 PM,57.0,46.0,67,30.03,10.0,Calm,Calm,-,N/A,,Overcast,0,2013-04-28 02:52:00
10:52 PM,57.0,46.9,69,30.01,10.0,Calm,Calm,-,N/A,,Overcast,0,2013-04-28 03:52:00
11:52 PM,55.0,46.9,74,30.00,10.0,SSW,3.5,-,N/A,,Overcast,200,2013-04-28 04:52:00